Find NNS 30070

NORAD ID: 1952 Int'l Des: 1966-005 Owner: BUWEPS Country: US operational
LEORETROGRADE

实时位置

正在加载3D地球...

关于 NNS 30070

正在加载描述...

即将过境

Passes for default location (London). Set your location on the main map for personalized predictions.

高度历史

Loading altitude history...

两行轨道根数

1 01952U 66005A 26107.13359399 .00000137 00000-0 12786-3 0 9990
2 01952 90.1510 350.8908 0216172 200.7500 158.4786 13.68119030997805
Epoch: Apr 17, 2026 • Age: 12 hours

当前状态

高度 1165.0 km
速度 7.20 km/s
星下点 34.18°N, 89.98°W
类型 other

Most Searched